YMA7468 ENKR-ENEV

Flight info

Callsign YMA7468
Flight time N/A
Altitude 32000
Route VADLA DCT ELDUR
Aircraft A20N/M-SDE2E3FGHIRWXY/LB1

Departure

Time 2026-04-17 03:40
Airport Kirkenes Airport, Høybuktmoen (ENKR)

Arrival

Time N/A
Airport Harstad/Narvik Airport (ENEV)
Time Latitude Longitude Altitude Speed Heading
2026-04-17 03:34 69.72269 29.89418 303 ft 0 kts 340°
2026-04-17 03:36 69.72316 29.89588 303 ft 12 kts 113°
2026-04-17 03:36 69.72279 29.89663 305 ft 1 kts 258°
2026-04-17 03:36 69.72280 29.89658 305 ft 0 kts 285°
2026-04-17 03:37 69.72292 29.89645 304 ft 6 kts 353°
2026-04-17 03:37 69.72396 29.89589 302 ft 23 kts 348°
2026-04-17 03:37 69.72557 29.89504 293 ft 19 kts 15°
2026-04-17 03:37 69.72639 29.89784 289 ft 19 kts 74°
2026-04-17 03:38 69.72688 29.90129 290 ft 19 kts 64°
2026-04-17 03:38 69.72742 29.90468 290 ft 18 kts 70°
2026-04-17 03:38 69.72784 29.90806 292 ft 17 kts 76°
2026-04-17 03:38 69.72817 29.91128 297 ft 15 kts 71°
2026-04-17 03:39 69.72863 29.91366 301 ft 12 kts 49°
2026-04-17 03:39 69.72852 29.91436 302 ft 8 kts 233°
2026-04-17 03:39 69.72845 29.91377 301 ft 12 kts 252°
2026-04-17 03:39 69.72738 29.90411 290 ft 86 kts 249°
2026-04-17 03:40 69.72483 29.88490 283 ft 138 kts 246°
2026-04-17 03:40 69.72070 29.85373 657 ft 155 kts 254°
2026-04-17 03:40 69.71813 29.82731 1451 ft 135 kts 266°
2026-04-17 03:40 69.71678 29.80064 1875 ft 142 kts 265°
2026-04-17 03:41 69.71301 29.77318 2312 ft 155 kts 250°
2026-04-17 03:41 69.70781 29.74548 2789 ft 163 kts 248°
2026-04-17 03:41 69.70216 29.71677 3283 ft 171 kts 247°
2026-04-17 03:41 69.69624 29.68696 3795 ft 178 kts 247°
2026-04-17 03:42 69.68995 29.65534 4259 ft 192 kts 246°
2026-04-17 03:42 69.68323 29.62129 4797 ft 202 kts 246°
2026-04-17 03:42 69.67634 29.58600 5443 ft 208 kts 246°
2026-04-17 03:42 69.66928 29.54957 6151 ft 212 kts 247°
2026-04-17 03:43 69.66217 29.51258 6862 ft 214 kts 247°
2026-04-17 03:43 69.65552 29.47841 7363 ft 225 kts 246°
2026-04-17 03:43 69.64715 29.43640 7875 ft 242 kts 246°
2026-04-17 03:43 69.63871 29.39440 8578 ft 248 kts 246°
2026-04-17 03:44 69.63010 29.35181 9316 ft 252 kts 246°
2026-04-17 03:44 69.62206 29.31199 9995 ft 255 kts 246°
2026-04-17 03:44 69.61592 29.26239 10783 ft 243 kts 278°
2026-04-17 03:44 69.62046 29.21886 11472 ft 225 kts 315°
2026-04-17 03:45 69.63122 29.18799 12139 ft 225 kts 322°
2026-04-17 03:45 69.64248 29.15734 12805 ft 230 kts 321°
2026-04-17 03:45 69.65369 29.12426 13475 ft 235 kts 319°
2026-04-17 03:45 69.66462 29.08996 14170 ft 239 kts 318°
2026-04-17 03:46 69.67561 29.05419 14867 ft 241 kts 317°
2026-04-17 03:46 69.68633 29.01850 15568 ft 243 kts 317°
2026-04-17 03:46 69.69728 28.98156 16267 ft 245 kts 317°
2026-04-17 03:46 69.70800 28.94513 16968 ft 245 kts 317°
2026-04-17 03:47 69.71917 28.90700 17690 ft 245 kts 317°
2026-04-17 03:47 69.73000 28.87001 18387 ft 245 kts 317°
2026-04-17 03:47 69.74080 28.83210 19088 ft 246 kts 312°
2026-04-17 03:47 69.74808 28.78690 19790 ft 258 kts 294°
2026-04-17 03:48 69.74987 28.73514 20452 ft 272 kts 279°
2026-04-17 03:48 69.74835 28.68041 21001 ft 277 kts 276°
2026-04-17 03:48 69.74636 28.62494 21499 ft 281 kts 276°
2026-04-17 03:48 69.74429 28.56913 22008 ft 283 kts 277°
2026-04-17 03:49 69.74221 28.51248 22499 ft 286 kts 277°
2026-04-17 03:49 69.74010 28.45497 22969 ft 289 kts 277°
2026-04-17 03:49 69.73802 28.39740 23428 ft 292 kts 278°
2026-04-17 03:49 69.73593 28.33992 23884 ft 294 kts 277°
2026-04-17 03:50 69.73375 28.28047 24346 ft 296 kts 278°
2026-04-17 03:50 69.73158 28.22151 24791 ft 299 kts 278°
2026-04-17 03:50 69.72940 28.16208 25195 ft 302 kts 278°
2026-04-17 03:50 69.72715 28.10154 25609 ft 305 kts 278°
2026-04-17 03:51 69.72487 28.04070 25994 ft 308 kts 278°
2026-04-17 03:51 69.72254 27.97914 26419 ft 311 kts 278°
2026-04-17 03:51 69.72017 27.91743 26833 ft 313 kts 278°
2026-04-17 03:51 69.71778 27.85535 27192 ft 316 kts 278°
2026-04-17 03:52 69.71531 27.79174 27578 ft 319 kts 278°
2026-04-17 03:52 69.71280 27.72826 27958 ft 321 kts 278°
2026-04-17 03:52 69.71024 27.66591 28574 ft 315 kts 278°
2026-04-17 03:52 69.70772 27.60326 28911 ft 318 kts 278°
2026-04-17 03:53 69.70517 27.53974 29254 ft 321 kts 278°
2026-04-17 03:53 69.70258 27.47592 29586 ft 324 kts 278°
2026-04-17 03:53 69.69992 27.41092 29916 ft 327 kts 278°
2026-04-17 03:53 69.69722 27.34594 30234 ft 330 kts 277°
2026-04-17 03:54 69.69450 27.28112 30534 ft 333 kts 277°
2026-04-17 03:54 69.69166 27.21428 30858 ft 335 kts 277°
2026-04-17 03:54 69.68882 27.14803 31153 ft 338 kts 277°
2026-04-17 03:54 69.68595 27.08108 31427 ft 341 kts 276°
2026-04-17 03:55 69.68303 27.01397 31699 ft 344 kts 276°
2026-04-17 03:55 69.68000 26.94504 31965 ft 347 kts 276°
2026-04-17 03:55 69.67696 26.87640 32216 ft 350 kts 275°
2026-04-17 03:56 69.67062 26.73382 32290 ft 369 kts 275°
2026-04-17 03:56 69.66731 26.66048 32291 ft 380 kts 274°
2026-04-17 03:56 69.66383 26.58438 32286 ft 390 kts 274°
2026-04-17 03:57 69.65646 26.42627 32280 ft 410 kts 273°
2026-04-17 03:57 69.64854 26.26134 32281 ft 428 kts 272°
2026-04-17 03:58 69.64009 26.08845 32283 ft 444 kts 271°
2026-04-17 03:58 69.63123 25.91057 32277 ft 457 kts 271°
2026-04-17 03:59 69.62276 25.74438 32276 ft 467 kts 271°